Location: Leimbach
(47.5611°N, 9.1881°E)
Time: 16:48:55
(UTC+00:00)

IRS-1D - Pass Details

Date: 07 June 2020
Orbit: 740 x 817 km, 98.6° (Epoch: 09 July)

Event Time Altitude Azimuth Distance (km) Brightness Sun altitude
Rises 01:05:52 0° 19° (NNE) 3,332 8.6 -15.9°
Reaches altitude 10° 01:08:21 10° 27° (NNE) 2,387 7.4 -15.7°
Maximum altitude 01:13:21 42° 98° (E) 1,114 4.5 -15.3°
Enters shadow 01:17:31 14° 166° (SSE) 2,072 5.3 -15.0°
